510  
ASUS41 KRLX 182310  
RWRRLX  
WEST VIRGINIA REGIONAL WEATHER ROUNDUP  
NATIONAL WEATHER SERVICE CHARLESTON WV  
600 PM EST SUN FEB 18 2018  
 
NOTE: "FAIR" INDICATES FEW OR NO CLOUDS BELOW 12,000 FEET WITH NO  
SIGNIFICANT WEATHER AND/OR S TO VISIBILITY
.  
 
WVZ003-190000-  
NORTHERN PANHANDLE OF WEST VIRGINIA  
 
CITY SKY/WX TMP DP RH WIND PRES REMARKS
 
WHEELING N/A 37 26 64 E6 30.31F  

 
 
WVZ009-190000-  
NORTHWEST WEST VIRGINIA  
 
CITY SKY/WX TMP DP RH WIND PRES REMARKS
 
PARKERSBURG N/A 42 28 57 E5 30.33R  

 
 
WVZ006-190000-  
WESTERN WEST VIRGINIA  
 
CITY SKY/WX TMP DP RH WIND PRES REMARKS
 
HUNTINGTON N/A 47 30 51 E5 30.24F  

 
 
WVZ015-190000-  
WEST CENTRAL WEST VIRGINIA  
 
CITY SKY/WX TMP DP RH WIND PRES REMARKS
 
CHARLESTON N/A 46 31 55 NE6 30.25F  

 
 
WVZ022-031-190000-  
NORTH CENTRAL WEST VIRGINIA  
 
CITY SKY/WX TMP DP RH WIND PRES REMARKS
 
CLARKSBURG N/A 41 28 60 NE3 30.29F  
MORGANTOWN N/A 39 27 62 CALM 30.32F  

 
 
WVZ025-035-042-045-190000-  
SOUTHERN WEST VIRGINIA  
 
CITY SKY/WX TMP DP RH WIND PRES REMARKS
 
BECKLEY N/A 45 26 47 SE6 30.24F  
LOGAN N/A 52 27 37 CALM 30.22F  
BLUEFIELD N/A 47 22 37 VRB3 30.25F  
LEWISBURG N/A 47 26 45 SE6 30.29S  

 
 
WVZ047-190000-  
NORTHERN MOUNTAINS OF WEST VIRGINIA  
 
CITY SKY/WX TMP DP RH WIND PRES REMARKS
 
ELKINS N/A 40 32 73 CALM 30.28F  

 
 
WVZ052-190000-  
EASTERN PANHANDLE OF WEST VIRGINIA  
 
CITY SKY/WX TMP DP RH WIND PRES REMARKS
 
MARTINSBURG N/A 44 26 49 E5 30.39R  
PETERSBURG N/A 44 27 50 CALM 30.34S  

 
 
 
CLICK HERE TO GO TO PREVIOUS BULLETINS.

The Nexlab WV Page
The Nexlab OH Page
The Nexlab KY Page
The Nexlab VA Page Main Text Page